Weather History for Tanger, Morocco

Change the Weather History Date:

Monday, December 31, 2012

  Actual Average Record
Temperature  
Mean Temperature 52 °F -  
Max Temperature 63 °F 60 °F 68 °F (2001)
Min Temperature 42 °F 44 °F 37 °F (2013)
Degree Days  
Heating Degree Days 12    
Growing Degree Days 2 (Base 50)    
Moisture  
Dew Point 48 °F    
Average Humidity 84    
Maximum Humidity 94    
Minimum Humidity 68    
Precipitation  
Precipitation 0.00 in 0.13 in - ()
Sea Level Pressure  
Sea Level Pressure 30.33 in    
Wind  
Wind Speed 5 mph ()    
Max Wind Speed 9 mph    
Max Gust Speed -    
Visibility 5.6 miles    
Events      
Averages and records for this station are not official NWS values.
T = Trace of Precipitation, MM = Missing Value Source: Averaged Metar Reports

Daily Weather History Graph

Daily Weather History Graph

Search for Another Location

Airport:

Trip Planner

Search our weather history database for the weather conditions in past years. The results will help you decide how hot, cold, wet, or windy it might be!

Date:

Astronomy

Dec. 31, 2012 Rise Set
Actual Time 7:33 AM WET 5:20 PM WET
Civil Twilight 7:04 AM WET 5:48 PM WET
Nautical Twilight 6:33 AM WET 6:20 PM WET
Astronomical Twilight 6:02 AM WET 6:51 PM WET
Moon 8:30 PM WET 9:13 AM WET
Length of Visible Light 10h 43m
Length of Day
9h 47m
Waning Gibbous, 91% of the Moon is Illuminated
Dec 31
Waning Gibbous
Jan 5
Last Quarter
Jan 11
New
Jan 18
First Quarter
Jan 27
Full

Hourly Weather History & Observations

Time (WET) Temp. Windchill Dew Point Humidity Pressure Visibility Wind Dir Wind Speed Gust Speed Precip Events Conditions
12:00 AM 45 °F - 42 °F 85% 30.42 in 5 mi ESE 8.1 mph - -   Scattered Clouds
12:00 AM 44.6 °F 40.2 °F 42.8 °F 93% 30.39 in 5.0 mi ESE 8.1 mph - N/A   Scattered Clouds
12:30 AM 44.6 °F 40.2 °F 42.8 °F 93% 30.39 in 5.0 mi East 8.1 mph - N/A   Scattered Clouds
1:00 AM 44.6 °F 40.7 °F 41.0 °F 87% 30.39 in 5.0 mi SE 6.9 mph - N/A   Scattered Clouds
1:30 AM 44.6 °F 39.7 °F 41.0 °F 87% 30.36 in 5.0 mi ESE 9.2 mph - N/A   Scattered Clouds
2:00 AM 44.6 °F 39.7 °F 42.8 °F 93% 30.36 in - ESE 9.2 mph - N/A   Unknown
2:30 AM 44.6 °F 39.7 °F 42.8 °F 93% 30.36 in - ESE 9.2 mph - N/A   Unknown
3:00 AM 46.4 °F 42.4 °F 42.8 °F 87% 30.36 in - ESE 8.1 mph - N/A   Unknown
3:30 AM 44.6 °F 40.7 °F 42.8 °F 93% 30.36 in - ESE 6.9 mph - N/A   Unknown
4:00 AM 46.4 °F 44.3 °F 42.8 °F 87% 30.36 in - SE 4.6 mph - N/A   Unknown
4:30 AM 44.6 °F 42.2 °F 42.8 °F 93% 30.36 in - SE 4.6 mph - N/A   Unknown
5:00 AM 44.6 °F 43.1 °F 41.0 °F 87% 30.36 in - ESE 3.5 mph - N/A   Unknown
5:30 AM 42.8 °F 41.1 °F 41.0 °F 93% 30.36 in - ENE 3.5 mph - N/A   Unknown
6:00 AM 43 °F - 40 °F 87% 30.36 in 5 mi Calm Calm - -   Scattered Clouds
6:00 AM 42.8 °F - 41.0 °F 93% 30.36 in 5.0 mi Calm Calm - N/A   Scattered Clouds
6:30 AM 42.8 °F 41.1 °F 41.0 °F 93% 30.36 in 5.0 mi ENE 3.5 mph - N/A   Scattered Clouds
7:00 AM 44.6 °F - 42.8 °F 93% 30.36 in 5.0 mi Variable 2.3 mph - N/A   Scattered Clouds
7:30 AM 44.6 °F 42.2 °F 42.8 °F 93% 30.36 in 5.0 mi ESE 4.6 mph - N/A   Scattered Clouds
8:00 AM 44.6 °F 41.4 °F 41.0 °F 87% 30.36 in 5.0 mi ESE 5.8 mph - N/A   Scattered Clouds
8:30 AM 44.6 °F 41.4 °F 42.8 °F 93% 30.36 in 6.2 mi ESE 5.8 mph - N/A   Scattered Clouds
9:00 AM 49 °F - 47 °F 92% 30.37 in 6 mi SE 4.6 mph - -   Scattered Clouds
9:00 AM 50.0 °F - 48.2 °F 94% 30.36 in 6.2 mi SE 4.6 mph - N/A   Scattered Clouds
9:30 AM 53.6 °F - 50.0 °F 88% 30.36 in 6.2 mi ESE 3.5 mph - N/A   Scattered Clouds
10:00 AM 57.2 °F - 53.6 °F 88% 30.36 in 6.2 mi SE 3.5 mph - N/A   Scattered Clouds
10:30 AM 59.0 °F - 53.6 °F 82% 30.36 in 6.2 mi SE 3.5 mph - N/A   Scattered Clouds
11:00 AM 60.8 °F - 53.6 °F 77% 30.36 in 6.2 mi ESE 3.5 mph - N/A   Scattered Clouds
11:30 AM 62.6 °F - 51.8 °F 68% 30.36 in 6.2 mi Variable 2.3 mph - N/A   Scattered Clouds
12:00 PM 60.8 °F - 53.6 °F 77% 30.33 in 6.2 mi ENE 4.6 mph - N/A   Scattered Clouds
12:30 PM 60.8 °F - 53.6 °F 77% 30.33 in 6.2 mi East 3.5 mph - N/A   Mostly Cloudy
1:00 PM 60.8 °F - 53.6 °F 77% 30.30 in 6.2 mi East 6.9 mph - N/A   Mostly Cloudy
1:30 PM 60.8 °F - 53.6 °F 77% 30.27 in 6.2 mi ENE 6.9 mph - N/A   Mostly Cloudy
2:00 PM 60.8 °F - 53.6 °F 77% 30.27 in 6.2 mi ENE 8.1 mph - N/A   Mostly Cloudy
2:30 PM 60.8 °F - 53.6 °F 77% 30.27 in 6.2 mi NE 9.2 mph - N/A   Mostly Cloudy
3:00 PM 60 °F - 53 °F 72% 30.28 in 6 mi NE 5.8 mph - -   Mostly Cloudy
3:00 PM 60.8 °F - 53.6 °F 77% 30.27 in 6.2 mi NE 5.8 mph - N/A   Mostly Cloudy
4:00 PM 59.0 °F - 51.8 °F 77% 30.27 in 6.2 mi ENE 8.1 mph - N/A   Mostly Cloudy
5:00 PM 57.2 °F - 51.8 °F 82% 30.24 in 6.2 mi NE 1.2 mph - N/A   Mostly Cloudy
6:00 PM 57 °F - 52 °F 78% 30.27 in 6 mi SW 5.8 mph - -   Mostly Cloudy
6:00 PM 57.2 °F - 51.8 °F 82% 30.24 in 6.2 mi SW 5.8 mph - N/A   Mostly Cloudy
7:00 PM 57.2 °F - 51.8 °F 82% 30.27 in 6.2 mi SW 6.9 mph - N/A   Mostly Cloudy
8:00 PM 57.2 °F - 50.0 °F 77% 30.27 in 5.0 mi SW 8.1 mph - N/A   Mostly Cloudy
9:00 PM 56 °F - 50 °F 75% 30.28 in 5 mi SSW 3.5 mph - -   Mostly Cloudy
9:00 PM 55.4 °F - 50.0 °F 82% 30.27 in 5.0 mi SSW 3.5 mph - N/A   Mostly Cloudy
9:30 PM 55.4 °F - 50.0 °F 82% 30.27 in 5.0 mi SSW 5.8 mph - N/A   Mostly Cloudy
10:00 PM 55.4 °F - 50.0 °F 82% 30.24 in 5.0 mi Calm Calm - N/A   Mostly Cloudy
10:30 PM 55.4 °F - 50.0 °F 82% 30.27 in 5.0 mi SSW 5.8 mph - N/A   Mostly Cloudy
11:00 PM 55.4 °F - 50.0 °F 82% 30.27 in 5.0 mi Variable 2.3 mph - N/A   Mostly Cloudy
11:30 PM 55.4 °F - 48.2 °F 77% 30.27 in 5.0 mi SSW 6.9 mph - N/A   Mostly Cloudy